Wind_Speed
7 6 6 5 5 5 5 4 4 3 3 3 2 2 2 1 1 1 1 1 1 1 1 2 2 3 4 5 6 7 7 8 8 8 8 9 9 8 8 8 8 8 8 8 8 8 9 9 9 10 10 10 10 10 10 10 9 9 9 9 9 9 9 10 11 12 12 12 12
7 6 6 5 5 5 5 4 4 4 3 3 3 2 1 1 0 1 1 1 1 1 2 2 2 3 4 5 6 7 7 8 8 8 8 9 9 8 8 8 8 8 8 8 8 8 8 8 9 9 10 10 10 11 10 10 9 9 9 9 9 9 10 11 11 11 11 12 12
7 6 5 5 5 4 4 4 4 4 3 3 3 2 1 0 1 1 2 2 2 2 2 2 3 4 4 5 6 7 7 8 8 8 8 8 9 8 8 8 8 8 8 8 7 7 7 8 8 9 9 9 10 10 10 9 9 9 10 10 10 11 11 11 11 10 10 10 11
7 6 5 5 4 4 4 3 3 3 3 3 2 2 1 1 1 2 2 3 2 2 2 3 3 4 4 5 6 7 7 8 8 8 8 8 9 9 9 8 8 9 9 8 8 7 7 7 8 8 9 9 9 9 9 9 9 9 9 10 11 11 11 10 10 9 10 10 10
6 6 5 5 4 4 4 3 3 3 3 3 2 2 1 1 2 3 3 3 3 3 3 3 4 4 4 5 6 7 7 7 7 7 8 8 9 9 9 9 9 9 9 9 8 8 7 7 8 8 8 8 8 7 7 6 6 7 8 10 10 11 10 10 9 10 11 12 13
7 6 6 5 5 4 4 4 3 3 3 3 2 2 2 2 2 3 4 4 4 4 4 4 4 4 5 5 6 7 7 7 7 7 7 8 8 9 9 9 9 9 9 9 8 7 7 7 8 7 7 7 6 6 5 5 6 7 8 10 10 10 11 11 12 13 13 14 15
7 7 6 5 5 5 4 4 4 3 3 3 2 2 2 2 2 3 4 4 4 4 5 5 5 5 5 6 6 7 7 7 7 7 7 8 8 9 9 9 9 9 9 9 8 7 7 7 7 7 7 7 7 7 7 7 9 10 11 11 12 12 13 14 15 15 15 16 17
7 7 6 6 5 5 5 4 4 4 3 3 2 1 1 1 2 2 3 4 4 5 5 5 5 5 6 6 6 7 7 6 6 7 7 7 8 9 9 9 9 9 9 9 9 8 8 7 7 7 7 8 8 8 9 10 11 12 12 13 13 14 14 15 16 16 17 17 18
7 7 6 5 5 4 4 4 4 4 3 3 2 1 1 1 2 2 3 3 4 5 5 6 6 6 6 6 7 7 7 6 6 6 7 7 8 9 9 9 9 9 9 9 9 9 8 8 8 8 8 9 9 10 10 11 12 13 13 14 14 15 15 16 16 17 17 18 18
8 7 6 5 5 4 4 4 4 3 3 2 2 2 2 2 3 3 2 3 4 5 5 6 6 6 6 7 7 7 6 6 6 7 7 8 9 9 10 9 9 9 9 9 8 8 8 8 8 9 9 10 10 10 11 11 12 13 14 14 15 16 16 16 17 17 18 18 19
8 7 6 5 4 4 4 4 4 3 2 2 1 1 2 2 3 3 2 2 3 4 5 6 6 6 6 7 7 7 7 7 7 7 8 9 9 10 10 9 9 9 9 8 7 7 7 8 9 9 10 10 10 10 11 11 12 13 14 15 15 16 17 17 17 18 18 19 19
7 6 6 5 4 4 4 3 3 2 2 1 1 1 2 2 2 2 2 2 3 4 5 6 6 6 6 7 7 7 7 7 7 8 9 9 10 10 10 10 9 9 8 8 7 7 7 8 9 9 10 10 9 10 10 11 12 13 14 15 15 16 17 18 18 18 19 19 20
7 6 6 5 4 4 3 3 2 2 1 1 1 1 2 2 2 2 2 2 3 4 5 5 6 6 6 6 7 7 7 7 8 9 10 10 11 11 10 10 9 9 8 7 7 7 7 7 8 8 9 8 8 9 10 11 12 13 14 15 16 17 18 18 19 19 19 19 20
7 6 6 5 4 4 3 3 2 2 1 2 2 2 2 2 3 3 2 3 3 4 5 5 6 6 6 6 6 7 7 8 9 9 10 11 11 11 10 10 9 9 8 7 7 7 7 7 8 8 7 7 8 8 9 11 12 14 15 16 17 18 19 19 19 19 20 20 20
8 7 6 5 5 4 3 3 2 1 1 2 2 2 2 2 3 3 3 3 4 4 5 5 5 6 6 6 6 7 7 8 9 10 11 11 11 11 10 10 9 9 9 8 8 7 7 7 7 7 6 6 7 8 10 11 13 15 16 17 18 19 19 20 20 20 20 20 20
8 7 6 6 5 4 3 3 2 1 1 2 2 2 3 3 3 3 3 3 4 5 5 5 6 6 6 6 6 7 7 8 9 10 10 11 11 11 10 10 10 9 9 9 8 8 8 7 6 5 5 6 7 8 10 12 14 15 16 17 18 19 19 20 20 20 20 20 20
8 8 7 6 5 4 4 3 2 2 2 3 3 3 3 3 3 3 4 4 5 5 5 6 6 6 6 6 7 7 8 8 9 10 10 11 11 11 11 10 10 9 9 9 9 9 8 7 6 5 4 5 7 9 11 13 14 16 17 17 18 19 19 20 20 20 20 20 20
9 8 7 6 5 4 4 4 3 3 3 3 4 4 4 4 4 4 5 5 5 6 6 6 6 7 7 7 7 7 8 8 9 9 10 11 11 11 11 10 10 9 9 9 9 10 9 7 5 4 4 5 7 9 11 13 15 16 17 17 18 18 19 19 19 20 20 20 20
8 7 6 5 5 5 5 5 4 4 4 4 4 5 5 5 5 5 5 6 6 6 6 6 7 7 7 7 8 8 8 9 9 9 10 10 11 11 11 10 10 9 9 9 10 10 9 6 4 3 4 6 8 10 12 14 15 16 17 17 18 18 18 19 19 19 19 19 19
8 7 6 5 5 5 6 6 5 5 5 5 5 5 5 5 5 6 6 6 6 6 6 6 7 7 7 8 8 9 9 9 9 9 10 10 10 11 10 10 9 9 9 10 10 9 7 4 3 3 4 6 9 11 13 15 16 16 17 17 18 18 18 18 19 19 19 18 19
7 6 6 6 6 7 7 6 5 5 5 6 6 6 6 6 6 6 7 7 7 7 7 7 7 7 8 8 9 9 9 9 9 10 10 10 10 10 10 9 9 10 10 10 9 7 4 2 2 4 6 8 10 12 14 15 16 17 17 17 18 18 18 18 18 18 18 18 18
6 6 6 7 7 7 7 7 6 6 7 7 7 6 6 6 6 7 7 7 7 7 7 7 7 7 8 9 9 10 10 10 10 10 11 10 10 9 9 9 9 10 10 9 7 4 3 3 4 6 7 9 11 12 14 15 16 17 17 18 18 18 18 18 17 17 17 17 17
6 6 7 8 8 8 8 7 7 7 7 7 7 6 6 6 7 7 7 7 7 7 7 7 7 8 9 10 10 10 10 10 11 11 11 10 10 9 9 9 9 10 9 7 5 5 5 6 7 8 9 10 11 12 14 15 16 17 17 18 18 17 17 17 17 17 17 17 16
6 7 9 9 9 9 8 8 8 8 8 7 7 6 6 6 7 7 7 7 7 7 7 7 9 10 10 10 10 10 10 11 11 11 11 10 9 9 8 8 9 9 7 7 6 7 8 9 9 9 9 9 10 12 14 16 17 17 17 17 17 17 17 17 17 16 16 16 16
8 9 10 10 10 10 9 9 9 8 8 7 7 7 7 7 7 7 7 7 7 7 8 9 10 11 11 10 10 10 10 11 12 12 11 10 9 9 8 8 8 8 7 7 8 9 9 9 9 9 8 9 10 12 15 17 18 18 17 17 17 17 17 17 17 16 16 16 15
10 11 12 11 11 10 10 9 9 8 8 7 7 7 7 7 7 6 6 7 7 8 10 11 12 12 11 10 9 10 11 11 12 11 11 10 9 8 8 8 8 8 8 8 9 9 9 9 8 8 8 9 11 14 16 17 18 17 16 16 15 16 16 17 17 16 16 16 15
11 12 12 12 11 11 10 9 9 8 8 7 7 7 7 6 6 6 6 7 9 10 11 12 12 11 10 9 9 10 11 11 11 11 10 10 9 8 8 7 8 8 8 9 9 9 8 7 7 8 9 11 13 15 17 17 18 17 15 14 14 15 16 16 16 16 16 16 15
13 13 12 12 11 11 10 9 9 8 8 7 7 6 6 5 5 6 7 9 11 12 13 13 12 11 10 9 9 10 11 11 11 11 10 9 8 8 7 7 7 8 8 8 7 7 6 6 7 8 10 13 15 17 17 18 17 15 14 13 13 14 15 15 16 16 16 16 15
12 12 12 11 11 11 10 9 8 8 8 7 7 6 5 5 5 7 9 11 12 13 13 12 11 10 9 9 9 10 11 11 11 10 10 9 8 7 6 6 6 7 7 7 6 5 5 6 8 10 12 14 16 18 18 17 16 14 12 12 13 14 15 15 16 16 16 15 15
12 12 11 11 11 10 10 9 9 8 8 7 6 5 5 5 7 9 10 11 12 12 12 11 10 9 9 9 10 11 11 11 10 9 8 7 7 6 6 6 6 6 7 7 7 6 6 7 9 11 13 16 17 18 18 17 15 13 12 12 13 14 15 15 15 15 15 15 15
11 11 11 11 10 10 10 9 9 8 8 7 6 6 6 7 9 10 11 12 12 12 12 11 11 10 10 11 11 12 12 11 9 8 7 6 6 6 6 7 8 7 8 8 7 7 7 8 11 13 15 17 18 19 18 16 13 12 11 12 13 14 14 15 15 15 15 15 15
11 11 11 10 10 10 9 9 9 8 7 7 7 7 8 9 10 11 12 12 12 12 12 12 11 11 11 11 12 12 11 10 8 7 6 5 5 6 7 8 8 7 8 8 6 6 8 10 12 15 16 18 18 18 16 14 12 11 11 12 13 14 14 14 14 15 15 15 15
11 11 11 10 10 10 10 9 9 8 7 7 8 9 9 11 12 12 12 12 12 12 12 12 12 11 11 11 12 12 11 9 8 6 6 6 6 7 7 8 8 6 6 5 5 7 10 12 14 16 17 18 18 17 15 12 10 10 11 12 13 13 14 14 14 14 15 14 14
12 12 11 11 10 10 10 9 9 9 9 9 9 10 11 12 12 12 12 12 12 12 12 12 12 11 11 12 12 12 11 9 8 7 6 7 7 7 7 8 7 6 5 5 7 10 13 14 15 16 17 18 17 16 13 11 10 10 11 12 13 13 13 14 14 14 14 14 14
12 12 11 11 10 10 10 10 10 10 10 10 11 11 12 12 12 12 12 12 12 12 12 12 12 12 12 12 12 12 11 9 8 7 7 7 7 7 7 8 7 7 8 8 10 12 14 14 15 15 16 17 17 15 12 10 10 10 11 12 12 13 13 13 14 14 14 14 14
11 10 10 9 9 9 9 10 11 12 12 12 12 12 12 12 13 13 13 13 12 12 12 12 12 12 12 12 12 12 10 9 8 7 7 7 7 7 7 8 7 8 9 11 12 13 13 13 14 14 15 16 16 14 11 9 9 10 11 11 12 12 13 13 14 14 14 14 14
10 9 8 7 7 8 10 12 13 13 13 13 12 12 12 13 13 13 13 13 13 13 13 12 12 12 12 12 12 11 10 8 7 7 6 6 7 7 8 8 8 8 10 11 12 12 12 12 13 14 14 15 15 13 11 9 9 9 10 11 12 12 12 13 13 14 14 14 14
7 6 6 7 8 11 12 14 14 14 13 13 13 13 13 13 13 13 13 13 12 12 12 12 12 11 12 12 12 11 9 7 7 6 7 7 8 8 8 9 8 8 9 11 12 12 11 12 12 13 14 14 14 12 10 8 8 9 10 11 11 12 12 13 13 14 14 14 14
4 4 6 8 11 13 14 14 14 13 13 13 13 13 13 13 13 13 12 12 11 11 11 11 11 11 12 12 12 11 9 8 7 7 7 8 8 9 9 9 9 8 9 11 12 12 12 12 12 13 13 13 13 11 9 8 8 9 10 10 11 12 12 13 13 13 14 14 14
4 6 8 11 13 14 14 13 13 13 13 13 13 13 13 13 13 12 12 11 11 11 11 11 11 12 12 12 12 11 10 9 8 8 8 8 8 8 8 8 9 8 9 11 12 12 11 12 12 12 12 12 12 11 9 7 7 8 9 10 11 12 13 13 13 13 13 13 13
7 9 11 13 14 13 13 12 12 12 13 13 13 13 13 13 13 12 12 11 11 11 11 12 12 12 12 12 12 11 11 10 10 9 9 8 7 7 7 8 8 9 9 11 12 11 11 11 12 11 11 11 12 11 9 6 7 8 9 10 11 12 13 14 14 13 13 13 13
Wind_Direction
128 131 135 140 145 147 147 147 149 150 152 161 172 182 192 208 241 277 290 297 301 304 314 326 331 331 331 331 330 327 324 320 318 318 318 316 316 318 322 329 333 335 335 333 330 328 325 324 323 323 321 319 316 314 313 314 315 315 313 312 314 317 319 319 317 314 313 313 314
131 133 137 142 147 151 154 155 161 167 170 174 177 181 183 194 259 296 302 305 308 309 316 322 326 329 330 330 328 325 321 318 317 318 318 318 319 323 329 332 334 334 332 329 324 320 317 316 316 315 315 314 314 315 316 320 323 324 322 321 321 321 320 318 316 314 314 315 316
131 133 136 142 148 153 157 162 170 176 175 171 167 162 158 166 306 311 312 311 314 316 320 324 325 326 326 327 325 321 318 317 317 319 319 320 322 327 331 333 333 331 329 325 320 316 313 313 314 314 314 314 316 317 318 318 318 320 322 323 325 325 324 323 322 320 318 317 316
131 132 135 139 144 150 156 163 170 172 167 159 150 139 117 50 348 329 323 320 320 324 327 326 322 320 319 320 320 318 317 317 319 320 321 322 325 328 331 332 331 329 326 322 318 316 316 315 313 311 310 310 312 312 311 312 315 318 323 327 329 329 328 327 325 322 318 315 315
135 136 138 139 143 151 157 163 165 164 162 156 144 124 90 40 2 344 333 329 329 329 327 323 316 310 309 312 315 316 316 317 319 321 323 324 326 327 329 329 329 327 324 321 319 317 315 312 310 308 308 310 309 307 307 313 321 324 326 328 328 327 326 325 322 319 318 318 318
143 146 147 149 153 160 165 165 165 165 163 157 143 117 80 39 8 349 339 334 330 327 323 316 308 303 304 309 313 315 315 316 319 322 324 325 326 326 327 326 324 323 323 323 321 318 313 309 307 304 303 304 301 299 304 315 322 324 325 325 323 322 320 319 319 319 319 319 319
150 152 154 157 162 166 169 168 165 164 161 157 143 119 81 36 4 347 338 333 329 324 319 312 305 303 305 311 313 313 312 313 316 320 323 325 325 324 324 323 320 319 318 319 318 315 311 307 302 300 300 303 304 307 313 321 326 328 328 326 323 320 319 319 319 319 318 316 316
155 157 158 160 164 169 171 169 166 161 158 156 150 140 110 14 341 331 328 328 328 323 315 308 304 305 308 311 310 308 308 310 314 318 321 322 323 321 319 318 317 316 314 314 312 311 309 308 306 307 311 316 320 322 325 329 332 333 331 328 325 322 321 319 318 316 314 314 313
159 160 160 161 165 170 174 172 168 162 157 157 161 177 205 247 276 290 304 317 320 317 312 306 304 306 308 308 305 304 305 309 313 316 319 320 319 316 314 312 312 311 309 308 309 311 312 314 317 321 325 328 328 329 330 332 333 333 331 327 324 321 319 317 316 315 314 313 313
162 163 163 163 166 171 176 174 171 166 163 164 174 198 225 240 245 253 269 295 310 312 309 305 305 307 307 305 303 303 306 310 314 317 318 318 315 311 309 307 307 306 305 305 308 314 319 323 326 327 327 326 326 328 331 332 333 332 329 325 322 319 317 316 316 315 315 314 314
165 166 166 165 166 169 174 175 173 172 172 178 189 214 239 249 244 242 252 283 306 310 309 307 307 307 306 304 304 306 310 314 318 319 318 315 310 306 304 303 301 301 302 305 312 319 324 326 326 324 322 321 323 326 330 332 331 329 325 322 320 318 317 316 316 315 314 313 312
168 168 168 166 166 168 170 171 173 177 186 199 216 241 263 267 259 251 255 285 306 311 310 308 307 306 305 305 307 310 315 318 320 319 316 310 305 301 299 298 298 298 300 306 315 321 322 322 320 317 315 316 319 324 327 328 328 326 324 321 320 319 317 316 315 314 312 311 310
171 170 168 167 169 170 169 167 171 182 203 224 236 253 270 277 270 263 263 285 304 308 308 306 305 305 305 306 309 314 319 321 320 317 312 306 301 298 297 296 297 299 302 307 312 315 315 313 310 308 309 312 318 323 326 328 327 327 325 323 322 319 317 315 313 312 310 309 309
173 172 171 172 175 175 173 169 171 186 216 239 249 261 270 275 271 264 263 278 296 301 301 301 301 303 305 307 312 316 320 321 318 313 307 302 299 298 298 299 301 303 306 307 307 307 305 303 302 303 307 314 319 324 328 330 331 330 328 325 322 319 316 314 312 311 310 309 308
177 176 175 178 181 182 179 174 175 196 232 257 267 270 272 271 268 263 263 272 284 288 290 293 297 300 303 307 312 317 319 317 314 309 304 302 301 301 302 304 305 306 305 304 302 301 299 298 299 302 310 319 324 329 332 333 333 332 329 325 322 319 316 314 313 311 310 309 308
181 181 181 184 188 189 186 184 189 212 248 267 274 274 270 266 264 263 265 268 273 276 280 285 292 297 300 303 308 312 314 312 308 305 303 302 303 303 304 305 305 304 302 301 300 299 299 299 301 305 314 323 329 333 334 334 334 331 328 324 321 318 317 315 314 313 312 311 309
186 186 187 190 194 197 199 202 208 226 251 265 270 270 266 264 262 264 266 267 267 268 273 280 288 293 296 299 303 306 307 306 303 302 302 303 303 304 303 302 301 300 300 300 301 301 300 300 301 305 315 324 331 334 336 335 333 330 327 323 320 318 317 316 315 314 313 312 311
190 191 193 197 203 210 216 219 222 234 250 262 266 266 264 262 262 265 267 267 264 264 269 277 284 289 293 296 299 301 301 300 298 299 300 302 302 302 300 298 297 297 298 300 300 299 297 295 294 301 314 326 332 335 337 336 334 330 327 323 321 319 317 316 315 314 314 313 313
193 195 200 207 216 224 228 229 231 239 250 259 263 263 262 261 262 265 267 267 264 263 267 275 282 287 291 294 297 298 297 296 295 297 298 299 299 298 296 295 294 295 296 296 295 293 291 286 284 295 316 328 334 337 338 337 334 331 327 324 321 318 317 316 315 314 314 313 313
196 201 209 218 228 232 233 233 236 243 251 257 261 262 262 262 264 266 268 267 266 265 268 275 281 286 290 294 296 295 294 293 294 295 296 296 295 294 293 293 293 293 293 291 290 289 285 280 282 303 321 330 335 337 337 336 333 330 326 323 320 317 316 315 315 314 314 313 312
203 211 221 229 234 235 235 235 238 244 250 255 258 260 262 264 266 267 267 267 266 267 269 273 279 286 291 294 294 293 293 293 293 293 291 290 289 290 291 292 292 291 290 289 288 287 284 281 295 313 323 328 332 334 334 333 332 328 325 321 318 316 315 315 315 314 314 313 312
211 221 229 235 237 236 236 236 239 244 248 252 256 260 263 266 268 268 268 266 266 266 267 270 277 284 289 290 290 290 290 292 291 289 286 284 284 287 289 291 291 291 291 289 284 277 274 282 295 307 316 322 325 328 330 330 329 326 323 319 317 315 315 315 314 314 313 312 312
220 229 235 237 238 237 237 237 239 243 246 250 255 259 264 269 271 272 271 269 267 266 266 269 277 283 285 285 285 286 289 291 290 287 284 282 283 286 289 290 291 294 294 285 271 264 269 280 290 300 308 314 319 323 326 327 327 325 321 317 315 314 313 313 313 313 312 312 312
228 234 237 237 237 237 237 238 239 242 246 251 256 262 267 271 275 276 275 273 270 268 269 274 279 282 282 280 280 283 286 288 287 286 284 283 284 286 288 290 293 294 292 283 279 278 279 283 288 294 301 308 314 320 324 326 326 324 320 316 313 312 312 312 311 311 311 313 314
234 237 237 237 236 236 237 238 241 244 249 254 260 264 269 272 275 277 278 277 275 275 276 280 281 280 278 276 276 279 282 283 283 283 283 283 284 285 286 287 292 291 286 282 283 284 283 283 286 292 301 311 317 322 325 327 326 323 319 315 312 311 310 310 310 311 312 314 316
237 238 237 236 234 235 237 239 242 245 250 256 262 266 269 272 276 279 281 282 282 281 281 281 279 277 274 273 274 277 279 280 280 281 282 283 283 284 284 285 290 290 284 277 275 274 275 277 283 294 307 318 324 327 328 328 326 323 320 315 313 311 310 309 310 312 315 317 319
239 238 236 234 233 235 238 241 243 247 252 258 263 267 269 272 277 282 287 288 287 284 281 278 276 274 272 271 273 277 280 283 284 284 284 284 283 282 281 283 290 291 283 274 269 267 268 276 290 304 316 325 329 331 331 329 327 324 320 316 313 310 309 310 312 315 318 321 322
240 238 236 234 235 237 240 243 247 250 255 260 265 267 269 272 279 287 292 291 287 283 279 275 273 271 270 271 274 279 283 286 288 289 288 286 282 279 279 283 290 291 286 277 268 264 272 289 307 318 325 329 332 333 332 330 328 325 320 315 312 310 311 312 316 319 322 324 324
240 238 236 236 237 240 244 247 250 254 259 262 264 264 264 271 284 291 292 289 284 281 278 276 274 272 271 273 277 280 283 285 287 289 289 287 284 281 282 289 293 286 277 275 269 273 289 309 320 326 330 332 334 335 334 332 330 325 319 314 311 311 313 316 319 321 323 323 323
241 239 237 237 239 243 246 249 253 256 259 261 259 257 261 275 286 288 287 285 282 281 280 280 278 276 276 277 280 281 281 281 283 286 288 290 291 290 293 298 298 277 259 267 274 287 305 319 325 330 333 335 336 336 334 332 330 325 318 312 311 312 315 317 319 320 320 320 319
244 242 241 241 242 245 248 251 254 257 258 256 252 254 265 276 282 283 282 280 280 281 281 280 279 278 278 279 280 280 279 279 280 283 288 294 298 299 299 298 299 271 248 259 272 290 310 322 328 332 335 337 336 335 333 332 331 324 316 311 311 313 315 317 318 318 317 316 316
246 246 245 245 245 247 250 253 255 257 256 253 253 259 268 274 277 277 278 277 278 279 279 278 276 276 277 279 280 279 278 277 276 278 284 291 296 297 296 294 297 274 250 253 268 295 316 326 331 334 335 335 333 332 332 333 330 322 314 312 312 314 315 316 316 315 314 314 314
248 248 248 247 248 249 252 254 256 257 256 256 259 264 269 273 275 275 275 276 277 278 277 276 274 274 275 278 280 279 277 273 272 272 275 281 286 288 289 288 292 279 261 260 289 316 326 330 332 332 331 330 329 331 333 335 327 318 313 312 313 314 315 315 314 313 313 313 312
250 251 250 249 249 250 252 254 256 258 259 260 263 266 270 272 273 274 275 276 277 277 276 273 272 272 273 275 277 276 273 269 265 264 267 270 272 275 277 280 281 276 275 294 316 325 327 327 327 326 325 325 327 331 336 334 323 315 313 313 313 313 314 314 314 314 313 313 312
253 253 252 250 250 250 252 255 257 259 260 262 265 267 270 271 273 274 276 276 277 276 274 272 270 269 270 272 272 271 267 261 258 257 259 260 260 261 266 272 269 270 281 301 315 321 322 320 319 319 320 322 327 333 336 331 321 315 313 313 313 314 314 315 315 315 315 314 313
257 258 257 254 253 254 257 260 260 260 261 263 265 268 270 271 273 274 275 277 276 275 273 270 268 267 268 270 271 268 262 256 252 251 253 253 253 255 260 265 259 267 284 300 309 313 313 312 312 314 317 322 328 333 335 329 319 314 313 313 313 314 315 317 317 317 317 316 314
263 266 267 268 270 271 270 266 262 260 261 263 266 268 270 272 272 273 274 275 275 273 270 268 266 266 268 271 272 270 263 255 250 251 254 257 256 256 258 260 254 266 286 298 302 303 304 306 308 312 317 323 329 333 334 327 318 313 313 313 313 314 316 318 318 318 317 316 315
269 277 287 292 289 283 275 268 263 261 262 265 267 268 270 270 271 272 272 273 272 271 270 268 267 268 270 272 274 272 267 257 253 257 263 266 264 260 256 254 251 263 281 289 291 293 297 301 305 311 317 324 330 334 334 327 318 313 312 313 313 315 316 318 318 318 317 316 316
296 308 306 300 291 282 274 268 266 266 268 269 269 269 269 270 270 271 272 272 272 271 271 271 270 271 272 273 273 271 266 259 258 262 267 269 266 260 252 248 248 257 270 278 281 284 289 295 302 309 317 326 332 336 336 328 317 312 312 313 314 316 316 317 317 316 315 315 317
339 320 304 293 284 276 272 270 272 274 275 275 274 273 272 272 272 273 273 273 272 271 271 271 271 271 271 271 269 266 263 260 260 262 264 264 264 260 254 250 253 259 265 269 272 277 283 290 298 306 316 327 334 339 339 331 318 312 312 314 316 316 316 315 315 315 315 316 318
323 306 294 283 276 273 273 275 277 279 279 279 277 276 275 274 274 273 273 272 271 270 269 269 269 269 269 267 265 263 260 260 259 258 256 254 256 260 265 265 266 265 263 262 267 273 280 287 292 301 312 325 334 340 342 336 319 312 312 313 314 314 314 314 314 314 314 315 318
Height
848 848 849 849 850 850 850 850 851 851 851 852 852 853 853 853 853 853 853 853 852 852 852 852 852 852 853 853 853 853 852 852 852 852 852 851 851 851 850 850 850 849 849 849 849 849 849 849 848 848 848 848 847 847 847 847 847 846 846 846 846 845 845 845 844 844 844 844 843
848 849 849 849 850 850 850 851 851 851 852 852 852 853 853 853 853 853 853 852 852 852 852 852 852 852 852 852 852 852 852 852 852 852 851 851 851 850 850 850 849 849 849 849 849 848 848 848 848 848 848 847 847 847 847 846 846 846 846 846 845 845 844 844 844 844 844 843 843
848 849 849 849 850 850 850 851 851 851 852 852 852 853 853 853 853 853 853 852 852 852 852 852 852 852 852 852 852 852 852 852 852 851 851 851 850 850 850 850 849 849 849 849 848 848 848 848 848 847 847 847 847 847 846 846 846 845 845 845 845 844 844 843 843 843 843 842 842
848 849 849 849 850 850 850 851 851 851 852 852 852 853 853 853 853 853 853 852 852 852 852 852 852 852 852 852 852 852 852 852 851 851 851 850 850 850 850 849 849 849 849 848 848 848 847 847 847 847 847 846 846 846 846 845 845 845 844 844 844 844 843 843 842 842 842 842 842
848 848 849 849 849 850 850 851 851 851 851 852 852 852 853 853 853 853 853 853 852 852 852 852 852 852 852 852 852 852 852 851 851 851 850 850 850 850 849 849 849 849 848 848 848 847 847 847 846 846 846 846 845 845 845 845 845 844 844 844 844 843 843 843 843 843 842 842 841
848 848 849 849 849 850 850 850 851 851 851 851 852 852 853 853 853 853 853 853 852 852 852 852 852 852 852 852 852 852 851 851 851 850 850 850 850 850 849 849 849 849 848 848 847 847 846 846 846 845 845 845 845 845 845 845 844 844 844 844 844 843 843 843 842 842 842 841 841
848 848 849 849 849 849 850 850 850 850 851 851 851 852 852 853 853 853 853 853 853 852 852 852 852 852 852 851 851 851 851 851 850 850 850 850 850 849 849 849 849 848 848 848 847 847 846 846 845 845 845 845 845 845 844 844 844 844 844 843 843 843 843 842 842 841 841 840 840
847 848 848 849 849 849 849 849 850 850 850 850 850 851 852 852 853 853 853 853 852 852 852 852 852 851 851 851 851 851 851 850 850 850 849 849 849 849 849 849 848 848 848 847 847 847 846 846 845 845 845 844 844 844 844 844 844 843 843 843 843 842 842 842 841 841 840 840 839
847 847 848 848 848 849 849 849 849 849 849 849 850 850 851 851 852 852 852 852 852 852 852 852 851 851 851 851 851 850 850 850 849 849 849 849 849 849 849 848 848 847 847 847 846 846 846 845 845 845 844 844 844 844 844 843 843 843 843 843 842 842 842 841 841 840 840 839 839
846 847 847 848 848 848 848 849 849 849 849 849 849 849 850 850 851 851 851 851 851 851 851 851 851 851 851 850 850 850 849 849 849 849 849 849 849 849 848 848 847 847 847 846 846 846 845 845 845 844 844 844 844 844 843 843 843 843 843 842 842 842 841 841 840 840 839 839 838
846 846 847 847 847 847 848 848 848 848 848 848 848 849 849 849 850 850 850 851 851 851 851 851 850 850 850 850 850 849 849 849 848 848 848 848 848 848 848 847 847 846 846 846 845 845 845 845 844 844 844 844 844 843 843 843 843 843 842 842 842 841 840 840 839 839 839 838 837
845 846 846 847 847 847 847 847 847 848 848 848 848 848 848 849 849 849 850 850 850 850 850 850 850 850 850 849 849 849 848 848 848 848 848 848 848 847 847 846 846 846 845 845 845 844 844 844 844 844 844 844 843 843 843 843 842 842 842 842 841 841 840 839 839 838 838 837 836
845 845 846 846 846 846 846 847 847 847 847 847 847 848 848 848 849 849 849 849 849 849 849 849 849 849 849 849 849 848 848 848 847 847 847 847 847 847 846 846 845 845 844 844 844 844 844 844 844 844 844 843 843 843 843 842 842 842 841 841 840 840 839 839 838 837 837 836 835
844 845 845 846 846 846 846 846 846 846 847 847 847 847 848 848 848 848 849 849 849 849 849 849 849 849 849 848 848 848 847 847 847 847 847 847 846 846 845 845 844 844 844 844 844 844 844 844 844 844 843 843 843 842 842 842 842 841 841 840 840 839 839 838 837 837 836 835 834
844 844 844 845 845 845 846 846 846 846 846 846 847 847 847 847 847 848 848 848 848 848 848 848 848 848 848 848 847 847 846 846 846 846 846 846 846 845 845 844 844 844 844 843 843 843 843 843 843 843 843 842 842 842 842 841 841 841 840 840 839 839 838 837 836 836 835 834 833
843 843 844 844 844 845 845 845 845 846 846 846 846 846 846 846 847 847 847 847 848 848 848 848 848 847 847 847 846 846 846 846 846 846 846 845 845 844 844 844 844 843 843 843 843 843 843 842 842 842 842 842 842 841 841 841 841 840 840 839 839 838 837 836 836 835 834 833 832
842 842 843 843 844 844 844 845 845 845 845 846 846 846 846 846 846 846 847 847 847 847 847 847 847 847 846 846 846 845 845 845 845 845 845 845 844 844 844 843 843 843 842 842 842 842 842 842 841 841 841 841 841 841 840 840 840 840 839 839 838 838 837 836 835 834 833 832 832
841 841 842 842 843 843 844 844 844 845 845 845 845 845 845 845 845 846 846 846 846 846 846 846 846 846 846 845 845 845 844 844 844 844 844 844 844 844 843 843 842 842 842 842 841 841 841 841 841 841 840 840 840 840 840 840 839 839 839 838 837 837 836 835 834 833 833 832 831
840 840 841 841 842 842 843 844 844 844 844 844 844 844 844 845 845 845 845 845 845 845 845 845 845 845 845 845 844 844 844 844 844 844 844 844 843 843 843 842 842 841 841 841 841 841 840 840 840 840 840 840 839 839 839 839 839 838 838 837 837 836 835 834 834 833 832 831 830
839 839 840 840 841 842 842 843 843 843 844 844 844 844 844 844 844 844 844 844 845 845 845 845 844 844 844 844 844 844 843 843 843 843 843 843 843 842 842 841 841 841 840 840 840 840 840 839 839 839 839 839 839 839 838 838 838 838 837 836 836 835 834 833 833 832 831 830 829
838 839 839 840 841 841 841 842 842 842 843 843 843 843 843 843 843 844 844 844 844 844 844 844 844 844 844 843 843 843 843 843 842 842 842 842 842 841 841 840 840 840 840 839 839 839 839 839 839 839 839 838 838 838 838 837 837 837 836 835 835 834 833 832 832 831 830 829 829
837 838 839 840 840 840 840 841 841 841 842 842 842 842 842 842 842 843 843 843 843 843 843 843 843 843 843 842 842 842 842 842 841 841 841 841 840 840 840 840 839 839 839 839 838 838 838 838 838 838 838 838 837 837 837 836 836 836 835 834 834 833 832 831 831 830 829 829 828
837 838 839 839 839 839 839 839 840 840 840 841 841 841 841 841 841 842 842 842 842 842 842 842 842 842 842 842 841 841 841 841 840 840 840 840 839 839 839 839 839 839 838 837 837 837 837 837 837 837 837 837 837 836 836 836 835 835 834 833 832 832 831 830 829 829 828 828 827
836 837 838 838 838 838 838 839 839 839 839 839 840 840 840 840 840 841 841 841 841 841 841 841 841 841 841 841 840 840 840 840 839 839 839 839 838 838 838 838 838 838 837 836 836 836 836 836 836 836 836 836 836 835 835 834 834 834 833 832 831 830 830 829 829 828 827 827 826
836 837 837 837 837 837 837 837 838 838 838 839 839 839 839 839 839 840 840 840 840 840 840 840 840 839 839 839 839 839 839 839 839 838 838 838 837 837 837 837 837 837 836 835 835 836 836 836 835 835 835 835 835 834 834 834 833 832 832 831 830 829 829 828 827 827 826 826 825
835 835 835 835 835 835 836 836 837 837 837 838 838 838 839 839 839 839 839 839 839 839 839 839 839 839 838 838 838 838 838 838 837 837 837 836 836 836 836 836 836 836 835 834 834 835 835 835 835 834 834 834 834 833 833 832 832 831 830 830 829 829 828 827 826 826 825 825 824
834 834 833 834 834 834 835 835 835 836 836 837 837 838 838 838 838 838 838 839 839 839 838 838 838 837 837 837 837 837 837 837 836 836 836 835 835 835 835 835 836 835 834 834 834 834 834 834 834 834 833 833 833 832 832 831 830 830 829 829 828 828 827 826 825 825 824 824 824
832 832 832 833 833 833 834 834 834 835 835 836 836 837 837 837 837 837 838 838 838 838 837 837 836 836 836 836 836 836 836 836 835 835 835 834 834 834 834 835 835 834 833 833 833 833 833 833 833 833 832 832 831 831 831 830 829 829 828 828 827 827 826 825 825 824 824 823 823
831 831 831 832 832 832 833 833 834 834 834 835 835 835 836 836 836 837 837 837 837 837 836 836 835 835 835 835 835 835 835 835 834 834 834 834 834 834 834 834 834 834 833 832 832 832 832 832 832 831 831 831 830 830 829 829 828 828 827 827 826 826 825 825 824 824 823 823 822
830 830 830 831 831 831 832 832 833 833 833 834 834 834 834 835 835 836 836 836 836 835 835 835 835 834 834 834 834 834 834 834 834 833 833 833 833 833 834 834 834 833 832 832 831 831 831 831 831 830 830 830 829 829 829 828 827 827 826 826 825 825 825 824 824 823 823 822 821
829 829 829 830 830 830 831 831 832 832 832 833 833 833 834 834 834 834 835 835 834 834 834 834 834 834 834 833 833 833 833 833 832 832 832 832 832 833 833 833 833 832 831 831 831 830 830 830 830 830 829 829 829 828 828 827 826 826 826 825 825 824 824 824 823 822 822 821 821
828 828 829 829 829 829 830 830 831 831 831 831 832 832 832 833 833 833 833 833 833 833 833 833 833 833 833 832 832 832 832 832 831 831 831 832 832 832 832 833 833 831 830 830 830 830 830 829 829 829 828 828 828 827 827 826 826 825 825 825 824 824 823 823 822 822 821 820 820
827 827 828 828 828 829 829 829 830 830 830 830 831 831 831 831 832 832 832 832 832 832 832 832 832 832 832 831 831 831 831 831 830 830 831 831 831 832 832 832 833 831 829 830 829 829 829 829 828 828 828 827 827 827 826 825 825 825 824 824 824 823 823 822 822 821 820 820 819
826 826 826 827 827 827 828 828 829 829 829 829 829 830 830 830 830 830 830 830 830 830 831 831 831 831 830 830 830 830 830 829 829 829 830 830 830 831 831 832 832 830 829 829 829 828 828 828 827 827 827 827 826 826 825 825 824 824 824 823 823 822 822 821 821 820 819 819 818
825 825 825 825 826 826 827 827 828 828 829 828 828 829 829 829 829 829 829 829 829 829 829 829 829 829 829 829 829 829 829 829 829 829 829 829 829 830 830 831 831 830 828 828 828 827 827 827 827 827 827 826 826 825 824 824 824 823 823 823 822 822 821 821 820 819 819 818 817
824 824 824 824 825 825 826 827 827 828 827 827 827 827 827 828 828 828 828 828 828 828 828 828 828 828 828 828 828 828 827 827 828 828 828 828 829 829 829 830 830 829 827 827 827 827 827 827 827 826 826 825 825 824 824 823 823 823 822 822 821 821 820 820 819 819 818 817 817
823 823 823 824 824 825 826 827 827 826 826 826 826 826 826 826 826 826 826 826 827 827 827 827 827 827 827 827 827 826 826 826 826 827 827 827 828 828 828 829 829 828 827 826 826 826 826 826 826 825 825 824 824 823 823 822 822 822 821 821 821 820 820 819 819 818 817 816 816
822 822 823 824 824 826 826 826 825 825 824 824 824 824 825 825 825 825 825 825 825 825 825 825 825 825 825 825 825 825 825 825 825 826 826 826 826 827 827 828 828 828 827 826 825 825 825 825 825 824 824 824 823 823 822 822 821 821 821 820 820 819 819 819 818 817 816 816 815
821 822 823 824 825 825 825 824 824 823 823 823 823 823 824 824 824 824 824 824 824 824 824 824 824 824 824 824 824 824 824 824 824 825 825 825 825 826 826 826 827 827 827 825 824 824 824 824 824 824 824 823 822 822 821 821 820 820 820 820 819 819 818 818 817 816 815 815 814
821 822 823 824 824 824 823 823 823 822 822 822 822 822 822 822 822 822 823 823 823 823 823 823 823 823 823 823 823 823 823 823 824 824 824 824 824 824 824 825 825 826 826 824 824 823 823 823 823 823 823 822 822 821 820 820 820 819 819 819 819 818 817 817 816 815 815 814 814
821 823 823 823 823 822 822 822 822 821 821 821 821 821 821 821 821 821 821 821 822 822 822 822 822 822 822 822 822 822 822 822 823 823 823 823 824 824 824 824 824 824 825 824 822 822 822 822 822 822 822 821 821 820 820 819 819 819 819 819 818 817 816 816 815 814 814 814 813